EW3336 Arlington VA US current weather conditions

sailwx.info

Wind from 013

Air temperature 26.7° C
Dewpoint 16.0° C

Last reported at 2020-Jul-15 01:00 UTC.
Time now 2020-Jul-15 01:24 UTC

Location: N 38°54' W 077°06'.
View on Google Maps.

See reports from other nearby stations

  
Tides and Currents Weather Stations Pressure Air Temp Water Temp Dewpoint Dewpoint Depression Visibility Wind Speed Wind Dir Waves Ship Positions
date/time (UTC)wind fromknots sea level pressurealtimeterstation pressurevisibilityair tempwater tempwave heightnotes
2020-Jul-15 01:00 013 26.7
2020-Jul-15 00:45 013 27.2
2020-Jul-15 00:30 013 28.3
2020-Jul-15 00:16 013 28.3
2020-Jul-15 00:01 360 28.9
2020-Jul-14 23:46 360 28.9
2020-Jul-14 23:31 347 29.4
2020-Jul-14 23:16 023 30.0
2020-Jul-14 23:03 021 30.6
2020-Jul-14 22:46 003 31.1
2020-Jul-14 22:31 345 31.1
2020-Jul-14 22:16 020 31.1
2020-Jul-14 21:47 356 31.7
2020-Jul-14 21:31 349 31.7
2020-Jul-14 21:16 006 31.7
2020-Jul-14 21:02 065 31.7
2020-Jul-14 20:46 265 31.7
2020-Jul-14 20:31 196 31.7
2020-Jul-14 20:16 297 31.1
2020-Jul-14 20:01 355 31.7
2020-Jul-14 19:46 135 30.6
2020-Jul-14 19:31 296 31.1
2020-Jul-14 19:16 339 30.6
2020-Jul-14 19:00 323 30.6
2020-Jul-14 18:46 290 30.6
2020-Jul-14 18:31 141 30.6
2020-Jul-14 18:15 106 30.0
2020-Jul-14 18:00 359 30.0
2020-Jul-14 17:46 173 30.0
2020-Jul-14 17:30 344 29.4
2020-Jul-14 15:00
2020-Jul-14 14:00
2020-Jul-14 13:00 338 23.3
2020-Jul-14 12:01
2020-Jul-14 11:00
2020-Jul-14 10:00
2020-Jul-14 09:01 196 21.7
2020-Jul-14 08:01 196 21.7
2020-Jul-14 07:46 21.1
2020-Jul-14 07:32 21.1
2020-Jul-14 07:16 21.1
2020-Jul-14 07:00 21.1
2020-Jul-14 06:46
2020-Jul-14 06:31
2020-Jul-14 06:15
2020-Jul-14 06:01
2020-Jul-14 05:46
2020-Jul-14 05:31
2020-Jul-14 05:16 196 21.7
2020-Jul-14 05:01 196 22.2
2020-Jul-14 04:45 192 22.2
2020-Jul-14 04:31 192 22.2
2020-Jul-14 04:15 192 22.2
2020-Jul-14 04:00 192 22.2
2020-Jul-14 03:46 192 22.2
2020-Jul-14 03:30 192 22.2
2020-Jul-14 03:15 192 22.8
2020-Jul-14 03:00 192 22.8
2020-Jul-14 02:45 192 22.8
2020-Jul-14 02:30 192 22.8
2020-Jul-14 02:15 192 23.9
2020-Jul-14 02:01 182 26.1
2020-Jul-14 01:45 357 26.7
2020-Jul-14 01:31 357 26.7
2020-Jul-14 01:15 357 26.7
2020-Jul-14 00:45 357 27.2
2020-Jul-14 00:15 357 28.3
2020-Jul-14 00:00 357 28.3
2020-Jul-13 23:52 357 28.9
2020-Jul-13 23:30 142 29.4
2020-Jul-13 23:17 142 30.0
2020-Jul-13 22:47 163 31.7
2020-Jul-13 22:33 208 32.2
2020-Jul-13 22:17 191 31.7
2020-Jul-13 21:47 221 31.7
2020-Jul-13 21:31 159 32.2
2020-Jul-13 21:16 012 31.7
2020-Jul-13 21:01 310 31.7
2020-Jul-13 20:46 087 31.1
2020-Jul-13 20:31 308 30.6
2020-Jul-13 20:15 305 31.7
2020-Jul-13 20:01 359 31.1
2020-Jul-13 19:46 243 31.1
2020-Jul-13 19:31 266 31.1
2020-Jul-13 19:16 142 31.1
2020-Jul-13 19:01 216 31.1
2020-Jul-13 18:45 356 30.6
2020-Jul-13 18:31 327 30.6
2020-Jul-13 18:15 116 30.6
2020-Jul-13 18:00 201 30.0
2020-Jul-13 17:45 280 28.9
2020-Jul-13 17:30 137 28.9
2020-Jul-13 17:15 005 28.9
2020-Jul-13 17:00 322 28.9
2020-Jul-13 16:45 120 28.9
2020-Jul-13 16:30 298 28.3
2020-Jul-13 16:15 351 28.3
2020-Jul-13 16:00 273 27.8
2020-Jul-13 15:45 267 27.8
2020-Jul-13 15:30 097 27.2
2020-Jul-13 15:17 356 26.7
2020-Jul-13 15:01 105 26.1
2020-Jul-13 14:46 011 26.1
2020-Jul-13 14:31 002 25.6
2020-Jul-13 14:16 016 25.0
2020-Jul-13 13:46 007 24.4
2020-Jul-13 13:31 325 23.9
2020-Jul-13 13:15 317 23.3
2020-Jul-13 13:01 357 23.3
2020-Jul-13 12:46 346 22.8
2020-Jul-13 12:30 352 22.2
2020-Jul-13 12:15 328 21.7
2020-Jul-13 12:00 001 21.7
2020-Jul-13 11:45 106 21.7
2020-Jul-13 11:30 008 21.1
2020-Jul-13 11:15 360 20.6
2020-Jul-13 11:00 342 20.6
2020-Jul-13 10:45 340 20.0
2020-Jul-13 10:30 344 20.0
2020-Jul-13 10:15 344 20.0
2020-Jul-13 10:00 003 20.0
2020-Jul-13 09:45 003 20.6
2020-Jul-13 09:30 003 20.6
2020-Jul-13 09:15 003 20.0
2020-Jul-13 08:46 358 20.6
2020-Jul-13 08:31 356 20.6
2020-Jul-13 08:16 356 20.6
2020-Jul-13 08:01 356 21.1
2020-Jul-13 07:47 354 21.1
2020-Jul-13 07:32 328 21.1
2020-Jul-13 07:16 010 21.1
2020-Jul-13 07:02 352 21.1
2020-Jul-13 06:47 325 21.7
2020-Jul-13 06:31 352 21.7
2020-Jul-13 06:17 343 21.7
2020-Jul-13 06:02 044 22.2
2020-Jul-13 05:46 002 22.2
2020-Jul-13 05:31 001 22.2
2020-Jul-13 05:15 001 22.2
2020-Jul-13 05:03 035 22.2
2020-Jul-13 04:46 030 22.8
2020-Jul-13 04:30 351 22.8
2020-Jul-13 04:15 350 23.3
2020-Jul-13 04:00 007 23.3
2020-Jul-13 03:46 007 23.9
2020-Jul-13 03:30 036 23.9
2020-Jul-13 03:16 009 23.9
2020-Jul-13 03:01 009 24.4
2020-Jul-13 02:46 315 24.4
2020-Jul-13 02:30 312 24.4
2020-Jul-13 02:16 233 25.0
2020-Jul-13 02:00 325 25.0
2020-Jul-13 01:45 307 0 gusting 7 25.6
2020-Jul-13 01:30 303 25.6
2020-Jul-13 01:15 346 25.6
2020-Jul-13 01:00 285 25.6